Preview of NWS' New Version of Forecast
This preview is not operational and should not be used for support decisions.

Regional Weather Roundup (RWR)

Issued by National Weather Service (NWS)

                            
000
ASUS44 KMEG 220010
RWRTN 
TENNESSEE HOURLY STATE WEATHER ROUNDUP
NATIONAL WEATHER SERVICE MEMPHIS TN
600 PM CST THU FEB 21 2019

TNZ002-004-019-021-049-052-054-088>092-220100-
WEST TENNESSEE
  
CITY           SKY/WX    TMP DP  RH WIND       PRES   REMARKS
MEMPHIS INTL   RAIN      45  44  97 NE8       30.16S                  
NWS MEMPHIS      N/A     44 N/A N/A MISG        N/A                   
JACKSON        CLOUDY    45  43  93 NE7       30.19R                  
DYERSBURG      LGT RAIN  43  40  89 N10       30.22S                  
SOMERVILLE     CLOUDY    45  45 100 N6        30.17R                  
COVINGTON      CLOUDY    45  43  93 E6        30.19S                  
UNION CITY     CLOUDY    41  39  93 N10       30.23S                  
PARIS          CLOUDY    46  39  76 N8        30.22R                  
HUNTINGDON     CLOUDY    46  41  81 N3        30.21R                  
SELMER         CLOUDY    46  45  93 VRB6G13   30.16R FOG              
$$

TNZ008-025-027-028-033-062-065-066-220100-
NORTH MIDDLE TENNESSEE
  
CITY           SKY/WX    TMP DP  RH WIND       PRES   REMARKS
NASHVILLE      LGT RAIN  47  42  83 NE10      30.17R                  
DICKSON        MOCLDY    45  41  87 NE8       30.17R                  
CLARKSVILLE    CLOUDY    47  36  65 N6        30.23R                  
LEBANON        CLOUDY    46  43  87 NE6       30.17S                  
SMYRNA         LGT RAIN  47  46  97 N7        30.19R                  
MURFREESBORO   MOCLDY    46  45  93 N8        30.15S                  
COOKEVILLE     CLOUDY    46  45  93 NE8       30.16S                  
LIVINGSTON     CLOUDY   N/A N/A N/A MISG      30.19R HAZE             
GALLATIN       CLOUDY    46  43  87 NE6       30.21R                  
CROSSVILLE     LGT RAIN  45  42  89 NE5       30.20R                  
ROCKWOOD       CLOUDY    46  45  93 N7        30.18R                  
$$

TNZ061-075-076-078-094-096-097-220100-
SOUTH MIDDLE TENNESSEE
  
CITY           SKY/WX    TMP DP  RH WIND       PRES   REMARKS
LAWRENCEBURG   CLOUDY    45  43  93 NE9       30.14R                  
LEWISBURG      CLOUDY    46  45  93 NE5       30.18R                  
FAYETTEVILLE   CLOUDY    48  48 100 NE6G15    30.13R                  
TULLAHOMA      CLOUDY    46  45  93 NE7       30.15R                  
WINCHESTER     CLOUDY    48  46  93 NE3       30.14S                  
MCMINNVILLE    CLOUDY    46  45  93 E7        30.14F                  
COLUMBIA       CLOUDY    46  46 100 NE6       30.16R FOG              
SHELBYVILLE    CLOUDY    46  45  93 CALM      30.17R                  
$$

TNZ017-018-042-046-047-220100-
NORTHEAST TENNESSEE
  
CITY           SKY/WX    TMP DP  RH WIND       PRES   REMARKS
TRI CITIES     CLOUDY    52  52 100 CALM      30.17R                  
ELIZABETHTON   CLOUDY    54  52  94 CALM      30.15F                  
GREENEVILLE    CLOUDY    52  52 100 CALM      30.15R FOG              
$$

TNZ012-013-036-069-073-074-220100-
CENTRAL EAST TENNESSEE
  
CITY           SKY/WX    TMP DP  RH WIND       PRES   REMARKS
KNOXVILLE      LGT RAIN  50  48  93 N6        30.16R                  
OAK RIDGE      LGT RAIN  51  48  89 CALM      30.20R                  
DOWNTOWN KNOXV CLOUDY    50  50 100 W5        30.20R                  
GATLINBURG     CLOUDY    52  52 100 CALM      30.16R FOG              
MORRISTOWN     CLOUDY    52  52 100 CALM      30.15S                  
JACKSBORO      CLOUDY    52  41  66 NW3       30.22R                  
$$

TNZ083-085-099-220100-
SOUTHEAST TENNESSEE
  
CITY           SKY/WX    TMP DP  RH WIND       PRES   REMARKS
CHATTANOOGA    LGT RAIN  51  50  96 N12       30.15R FOG              
DAYTON         CLOUDY    50  50 100 N3        30.18R                  
$$

SKY/WX REPORTED AS FAIR MEANS FEW OR NO CLOUDS BELOW
12 THOUSAND FEET.